Back to catalog

ONEWEB-0193

AliveCommunicationsPO
NORAD 48238·PAYLOAD·🇬🇧 United Kingdom

Launched Apr 25, 2021 from Vostochny Cosmodrome

Loading…

Next Passes (next 24 hours)

TLE

FreshSource: CelesTrak SupGP

Epoch: Sep 14, 2026, 10:53 UTC

1 48238C 21031AE  26257.45400880  .00003577  00000+0  96596-2 0  2578
2 48238  87.8899 271.8994 0002307  88.2941  16.3510 13.14496275    19

Track ONEWEB-0193 in real time with AllMySat

Download on the App Store